Weather Roundup
Issued by NWS

Home | Current Version | Previous Version | Text Only | Print | Product List | Glossary On
Versions: 1 2 3 4 5 6 7 8 9 10 11 12 13 14 15 16 17 18 19 20 21 22 23 24 25 26 27 28 29 30 31 32 33 34 35 36 37 38 39 40 41 42 43 44 45 46 47 48 49 50
000
NZUS93 KARX 290210
HRRWXR

CURRENT HOURLY OBSERVATIONS ACROSS
MUCH OF THE UPPER MISSISSIPPI VALLEY
NATIONAL WEATHER SERVICE LA CROSSE WI
900 PM CDT SAT MAY 28 2016


...SOUTHEAST MINNESOTA...


CITY           SKY/WX    TMP DP  RH WIND       PRES   REMARKS
ROCHESTER      MOCLDY    63  61  93 S3        29.81R
ROCHESTER/MAYO MOCLDY    64  63  97 CALM      29.80S
WINONA         LGT RAIN  61  59  94 CALM      29.79F
AUSTIN         CLOUDY    63  59  88 SW5       29.81R
ALBERT LEA     RAIN      64  63  94 S5        29.81R
DODGE CENTER   LGT RAIN  63  61  94 CALM      29.81R
PRESTON        MOCLDY    61  59  93 S3        29.82S
OWATONNA       LGT RAIN  64  63  94 S3        29.80R
FARIBAULT      CLOUDY    66  63  88 NW6       29.80R
$$

...ELSEWHERE IN MINNESOTA...


CITY           SKY/WX    TMP DP  RH WIND       PRES   REMARKS
MINNEAPOLIS    CLOUDY    64  60  87 N3        29.79S
INTNL FALLS    CLOUDY    57  56  96 VRB6      29.81S FOG
DULUTH         LGT RAIN  54  53  97 E5        29.80F VSB 1/4
RED WING       PTCLDY    66  64  94 CALM      29.77F
REDWOOD FALLS  CLOUDY    64  59  83 NW5       29.82R
MANKATO        CLOUDY    63  59  88 N7        29.81R
WORTHINGTON    LGT RAIN  62  58  86 N8        29.86R
FAIRMONT       CLOUDY    63  55  77 NW8       29.82R
$$

...SOUTHWEST WISCONSIN...


CITY           SKY/WX    TMP DP  RH WIND       PRES   REMARKS
LA CROSSE      LGT RAIN  65  62  90 N7        29.79R
PRAIRIE DU CHI CLOUDY    69  60  72 SW7       29.83R
BOSCOBEL       CLOUDY    69  65  86 S3        29.83R
LONE ROCK      CLOUDY    67  65  93 CALM      29.84R
PLATTEVILLE    CLOUDY    68  67  94 S6        29.86R
FORT MC COY    CLOUDY    66  63  90 S3        29.81R
CAMP DOUGLAS   CLOUDY    67  67 100 S10       29.80S
MAUSTON-NEW LI CLOUDY    67  64  87 S6        29.80S
VIROQUA        MOCLDY    66  62  87 S10       29.83R
WIS DELLS      CLOUDY    66  61  83 S6        29.84S
$$

...ELSEWHERE IN WISCONSIN...


CITY           SKY/WX    TMP DP  RH WIND       PRES   REMARKS
MILWAUKEE      TSTM      74  58  57 W18G30    29.91R
MADISON        CLOUDY    66  64  93 CALM      29.84S
GREEN BAY      MOCLDY    67  61  81 SW17G29   29.86R
EAU CLAIRE     CLOUDY    62  61  96 CALM      29.77F
BLACK RVR FLS  FAIR      66  61  84 S3        29.79R
MEDFORD        TSTM      62  62  99 W12G31    29.82R
WAUSAU         CLOUDY    71  63  75 S9        29.79R
WIS RAPIDS     CLOUDY    67  63  87 S6        29.82R
MARSHFIELD     MOCLDY    68  59  73 SW9       29.80R
RICE LAKE      RAIN      61  59  91 CALM      29.80R
$$

...NORTHEAST IOWA...


CITY           SKY/WX    TMP DP  RH WIND       PRES   REMARKS
WATERLOO       PTCLDY    65  61  87 S6        29.82R
DUBUQUE        CLOUDY    68  61  78 SW8       29.86R
DECORAH        MOCLDY    64  61  88 VRB6G16   29.82R
MASON CITY     MOCLDY    63  62  97 SE5       29.82R
CHARLES CITY   CLOUDY    64  63  94 S8        29.82S
OELWEIN        CLOUDY    68  63  83 SW12      29.84S
$$

...ELSEWHERE IN IOWA...


CITY           SKY/WX    TMP DP  RH WIND       PRES   REMARKS
DES MOINES     PTCLDY    69  57  65 SW12      29.85S
IOWA CITY      CLEAR     70  60  70 SW6       29.88R
FORT DODGE     CLOUDY    64  57  77 SW8       29.81R
MARSHALLTOWN   CLOUDY    67  59  75 SW9       29.83R
CEDAR RAPIDS   CLEAR     68  61  78 SW9       29.85R
$$

...NORTHERN ILLINOIS...


CITY           SKY/WX    TMP DP  RH WIND       PRES   REMARKS
CHICAGO-OHARE  MOCLDY    77  63  61 S20G26    29.87F
CHICAGO-MIDWAY MOCLDY    80  62  54 S14G25    29.89F
MOLINE         CLOUDY    75  58  55 W17       29.87R
ROCKFORD       CLOUDY    69  62  78 W3        29.87F THUNDER
PEORIA         LGT RAIN  66  61  84 S21G30    29.92R
$$

NOTE: "FAIR" INDICATES FEW OR NO CLOUDS BELOW 12,000 FEET WITH NO
SIGNIFICANT WEATHER AND/OR OBSTRUCTIONS TO VISIBILITY. WIND
SPEEDS ARE IN MILES-PER-HOUR.




USA.gov is the U.S. government's official web portal to all federal, state and local government web resources and services.